Home > Weather > Södertälje > Past weeks

Flag for Sweden Past Weather in Södertälje, Sweden — Yesterday and Last 2 Weeks

Now
68 °F

Mostly cloudy.


Feels Like: 68 °F
Forecast: 57 / 74 °F
Wind: 9 mph from South

Location: Stockholm Bromma Airport

Current Time: Jul 28, 2016 at 12:31:55 PM

Latest Report: Jul 28, 2016 at 11:50 AM


Visibility: N/A

Pressure: 29.89 "Hg

Humidity: 69%

Dew Point: 57 °F

Location of SödertäljeLocation

Past Weather in Södertälje — Graph

°F

Södertälje Temperature Yesterday

Maximum temperature yesterday: 75 °F (at 4:20 PM)
Minimum temperature yesterday: 55 °F (at 2:20 AM)
Average temperature yesterday: 65 °F

High & Low Weather Summary for the Past Weeks

 TemperatureHumidityPressure
High84 °F (Jul 24, 1:50 PM)100% (Jul 16, 2:50 AM)30.12 "Hg (Jul 16, 2:50 AM)
Low48 °F (Jul 21, 3:50 AM)27% (Jul 23, 11:20 AM)29.68 "Hg (Jul 13, 11:20 AM)
Average66 °F66%29.96 "Hg
* Reported Jul 13 11:20 AM — Jul 28 11:20 AM, Södertälje, Weather by CustomWeather, © 2016

Note: Actual official high and low records may vary slightly from our data, if they occured in-between our weather recording intervals... More about our weather records

Advertising

Södertälje Weather History for the Previous 24 Hours

Scroll right to see more
 ConditionsComfort  
Time TempWeatherWind HumidityBarometerVisibility
11:20 AM
Thu, Jul 28
66 °FBroken clouds.10 mph78%29.89 "HgN/A
10:50 AM70 °FPartly sunny.9 mph60%29.89 "HgN/A
10:20 AM70 °FPartly sunny.10 mph57%29.89 "HgN/A
9:50 AM68 °FPassing clouds.10 mph64%29.89 "HgN/A
9:20 AM68 °FSunny.8 mph64%29.89 "Hg10 mi
8:50 AM66 °FSunny.7 mph68%29.89 "Hg10 mi
8:20 AM66 °FSunny.7 mph68%29.89 "Hg10 mi
7:50 AM66 °FSunny.8 mph73%29.89 "Hg10 mi
7:20 AM66 °FSunny.7 mph78%29.89 "Hg10 mi
6:50 AM66 °FSunny.7 mph78%29.89 "Hg10 mi
6:20 AM66 °FSunny.7 mph78%29.89 "Hg10 mi
5:50 AM64 °FSunny.7 mph83%29.89 "Hg10 mi
5:20 AM64 °FOvercast.6 mph83%29.89 "HgN/A
4:50 AM64 °FOvercast.7 mph83%29.89 "HgN/A
4:20 AM64 °FMostly cloudy.8 mph83%29.89 "HgN/A
3:50 AM63 °FMostly cloudy.6 mph88%29.89 "HgN/A
3:20 AM61 °FPartly cloudy.6 mph88%29.92 "HgN/A
2:50 AM63 °FPassing clouds.5 mph83%29.92 "HgN/A
2:20 AM63 °FMostly cloudy.5 mph83%29.92 "HgN/A
1:50 AM63 °FPartly cloudy.5 mph83%29.92 "HgN/A
1:20 AM61 °FPassing clouds.2 mph88%29.92 "HgN/A
12:50 AM61 °FCool.3 mph88%29.95 "HgN/A
12:20 AM63 °FMild.3 mph77%29.95 "HgN/A
11:50 PM
Wed, Jul 27
61 °FPassing clouds.3 mph83%29.95 "HgN/A
11:20 PM64 °FPartly cloudy.3 mph73%29.95 "HgN/A
10:50 PM64 °FPassing clouds.5 mph73%29.95 "HgN/A
10:20 PM64 °FPartly sunny.3 mph73%29.95 "HgN/A
9:50 PM66 °FSunny.6 mph64%29.95 "Hg10 mi
9:20 PM68 °FPassing clouds.7 mph60%29.95 "HgN/A
8:50 PM68 °FSunny.8 mph56%29.95 "Hg10 mi
8:20 PM68 °FSunny.8 mph60%29.95 "Hg10 mi
7:50 PM70 °FSunny.9 mph57%29.95 "Hg10 mi
7:20 PM70 °FSunny.10 mph60%29.95 "Hg10 mi
6:50 PM72 °FBroken clouds.10 mph53%29.95 "HgN/A
6:20 PM75 °FSunny.8 mph36%29.95 "Hg10 mi
5:50 PM75 °FPassing clouds.8 mph34%29.95 "HgN/A
5:20 PM75 °FPassing clouds.9 mph34%29.95 "HgN/A
4:50 PM75 °FPassing clouds.8 mph36%29.98 "HgN/A
4:20 PM75 °FSunny.10 mph39%29.98 "Hg10 mi
3:50 PM73 °FBroken clouds.10 mph44%29.98 "HgN/A
3:20 PM73 °FScattered clouds.10 mph47%29.98 "HgN/A
2:50 PM72 °FPassing clouds.9 mph50%29.98 "HgN/A
2:20 PM72 °FPassing clouds.7 mph50%30.01 "HgN/A
1:50 PM72 °FPassing clouds.6 mph50%30.01 "HgN/A
1:20 PM72 °FScattered clouds.8 mph50%30.01 "HgN/A
12:50 PM70 °FScattered clouds.8 mph53%30.01 "HgN/A
12:20 PM70 °FScattered clouds.9 mph53%30.01 "HgN/A
Weather by CustomWeather, © 2016

See weather overviewHow to use our weather pages